Location: Sagn�
(15.2046°N, 12.7898°W)
Time: 13:34:32
(UTC+00:00)

IRS-1C Rocket - Pass Details

Date: 08 May 2021
Orbit: 800 x 806 km, 98.9° (Epoch: 14 June)

Event Time Altitude Azimuth Distance (km) Brightness Sun altitude
Rises 19:34:32 0° 157° (SSE) 3,306 6.9 -6.3°
Reaches altitude 10° 19:36:54 10° 152° (SSE) 2,375 6.1 -6.8°
Maximum altitude 19:42:01 55° 76° (ENE) 963 4.3 -8.0°
Drops below altitude 10° 19:47:07 10° 359° (N) 2,375 6.8 -9.1°
Sets 19:49:29 0° 355° (N) 3,305 7.7 -9.6°
